Вернуться в каталог

OPS 0856 DEB

LostPO
NORAD 23820·DEBRIS·🇺🇸 United States

Запущен Aug 19, 1966 с Vandenberg Space Force Base

Loading…

Ближайшие Пролёты (ближайшие 24 часа)

TLE

УстаревшееSource: Space-Track

Эпоха: Jan 22, 2025, 18:44 UTC

1 23820U 66077D   25022.78110296 -.00009238  00000-0 -56236+0 0  9991
2 23820  88.4531 332.1713 1828241 293.0412  48.8323  8.90978338 41337

Отслеживайте OPS 0856 DEB в реальном времени с AllMySat

Download on the App Store